Location: Rio Tanui
(39.9167°N, 8.5167°E)
Time: 15:26:59
(UTC+00:00)

Meteor 2-2 Rocket - Pass Details

Date: 26 June 2024
Orbit: 851 x 928 km, 81.3° (Epoch: 18 July)

Event Time Altitude Azimuth Distance (km) Brightness Sun altitude
Rises 01:25:19 0° 356° (N) 3,427 8.3 -21.2°
Reaches altitude 10° 01:27:51 10° 3° (N) 2,487 7.5 -20.9°
Maximum altitude 01:33:16 47° 76° (ENE) 1,123 5.1 -20.4°
Drops below altitude 10° 01:38:41 10° 150° (SSE) 2,493 6.4 -19.9°
Enters shadow 01:38:41 10° 150° (SSE) 2,494 6.4 -19.9°
